Time,TemperatureF,DewpointF,PressureIn,WindDirection,WindDirectionDegrees,WindSpeedMPH,WindSpeedGustMPH,Humidity,HourlyPrecipIn,Conditions,Clouds,dailyrainin,SoftwareType,DateUTC
2013-12-06 00:00:00,52.5,46.0,29.88,West,273,1.0,10.0,78,0.00,,,0.00,weatherlink.com 1.10,2013-12-06 05:00:00,
2013-12-06 00:15:00,52.3,44.0,29.87,WNW,282,3.0,12.0,74,0.00,,,0.00,weatherlink.com 1.10,2013-12-06 05:15:00,
2013-12-06 00:30:00,51.8,43.0,29.87,NW,307,2.0,11.0,72,0.00,,,0.00,weatherlink.com 1.10,2013-12-06 05:30:00,
2013-12-06 00:45:00,51.4,43.0,29.87,NNW,327,1.0,4.0,73,0.00,,,0.00,weatherlink.com 1.10,2013-12-06 05:45:00,
2013-12-06 01:00:00,50.3,43.0,29.87,NE,37,0.0,2.0,76,0.00,,,0.00,weatherlink.com 1.10,2013-12-06 06:00:00,
2013-12-06 01:15:00,50.8,43.0,29.88,SW,224,1.0,4.0,74,0.00,,,0.00,weatherlink.com 1.10,2013-12-06 06:15:00,
2013-12-06 01:30:00,49.7,43.0,29.88,North,5,2.0,2.0,78,0.00,,,0.00,weatherlink.com 1.10,2013-12-06 06:30:00,
2013-12-06 01:45:00,49.1,43.0,29.89,NW,326,0.0,1.0,78,0.00,,,0.00,weatherlink.com 1.10,2013-12-06 06:45:00,
2013-12-06 02:00:00,48.9,42.0,29.88,SE,135,0.0,3.0,78,0.00,,,0.00,weatherlink.com 1.10,2013-12-06 07:00:00,
2013-12-06 02:15:00,49.1,41.0,29.89,West,259,0.0,4.0,74,0.00,,,0.00,weatherlink.com 1.10,2013-12-06 07:15:00,
2013-12-06 02:30:00,48.0,41.0,29.91,NW,305,1.0,3.0,78,0.01,,,0.01,weatherlink.com 1.10,2013-12-06 07:30:00,
2013-12-06 02:45:00,46.4,41.0,29.91,NW,314,3.0,5.0,82,0.02,,,0.02,weatherlink.com 1.10,2013-12-06 07:45:00,
2013-12-06 03:00:00,45.8,40.0,29.89,WNW,283,9.0,9.0,80,0.03,,,0.03,weatherlink.com 1.10,2013-12-06 08:00:00,
2013-12-06 03:15:00,44.9,40.0,29.90,NW,312,2.0,9.0,82,0.04,,,0.04,weatherlink.com 1.10,2013-12-06 08:15:00,
2013-12-06 03:30:00,43.5,40.0,29.91,WNW,291,1.0,3.0,88,0.04,,,0.06,weatherlink.com 1.10,2013-12-06 08:30:00,
2013-12-06 03:46:00,43.0,40.0,29.91,North,349,0.0,4.0,90,0.07,,,0.09,weatherlink.com 1.10,2013-12-06 08:46:00,
2013-12-06 04:01:00,42.5,40.0,29.93,North,6,0.0,2.0,92,0.09,,,0.12,weatherlink.com 1.10,2013-12-06 09:01:00,
2013-12-06 04:16:00,42.2,40.0,29.93,SW,215,0.0,1.0,93,0.16,,,0.20,weatherlink.com 1.10,2013-12-06 09:16:00,
2013-12-06 04:31:00,42.1,41.0,29.94,WSW,237,2.0,2.0,94,0.18,,,0.24,weatherlink.com 1.10,2013-12-06 09:31:00,
2013-12-06 04:46:00,41.9,40.0,29.95,NW,316,0.0,1.0,94,0.21,,,0.30,weatherlink.com 1.10,2013-12-06 09:46:00,
2013-12-06 05:01:00,41.7,40.0,29.95,WNW,290,0.0,2.0,95,0.22,,,0.35,weatherlink.com 1.10,2013-12-06 10:01:00,
2013-12-06 05:16:00,41.5,40.0,29.95,WNW,283,0.0,1.0,95,0.18,,,0.38,weatherlink.com 1.10,2013-12-06 10:16:00,
2013-12-06 05:31:00,41.9,40.0,29.96,NW,316,0.0,6.0,92,0.15,,,0.40,weatherlink.com 1.10,2013-12-06 10:31:00,
2013-12-06 05:46:00,41.1,39.0,29.95,ENE,71,1.0,1.0,93,0.11,,,0.41,weatherlink.com 1.10,2013-12-06 10:46:00,
2013-12-06 06:01:00,40.4,39.0,29.95,ENE,65,3.0,3.0,94,0.07,,,0.42,weatherlink.com 1.10,2013-12-06 11:01:00,
2013-12-06 06:16:00,40.0,39.0,29.95,NNE,26,0.0,2.0,94,0.05,,,0.43,weatherlink.com 1.10,2013-12-06 11:16:00,
2013-12-06 06:31:00,39.7,38.0,29.96,NNE,26,0.0,1.0,95,0.03,,,0.43,weatherlink.com 1.10,2013-12-06 11:31:00,
2013-12-06 06:46:00,39.7,39.0,29.99,NNE,23,0.0,2.0,96,0.02,,,0.43,weatherlink.com 1.10,2013-12-06 11:46:00,
2013-12-06 07:01:00,39.5,39.0,29.98,East,92,1.0,1.0,96,0.03,,,0.45,weatherlink.com 1.10,2013-12-06 12:01:00,
2013-12-06 07:16:00,39.2,38.0,30.00,NW,314,0.0,2.0,95,0.03,,,0.46,weatherlink.com 1.10,2013-12-06 12:16:00,
2013-12-06 07:31:00,39.1,38.0,30.04,WNW,297,0.0,1.0,95,0.04,,,0.47,weatherlink.com 1.10,2013-12-06 12:31:00,
2013-12-06 07:46:00,39.0,38.0,30.01,SSW,210,0.0,1.0,95,0.05,,,0.48,weatherlink.com 1.10,2013-12-06 12:46:00,
2013-12-06 08:01:00,38.9,38.0,30.03,SSW,210,0.0,1.0,96,0.03,,,0.48,weatherlink.com 1.10,2013-12-06 13:01:00,
2013-12-06 08:16:00,38.9,38.0,30.02,West,262,0.0,1.0,96,0.02,,,0.48,weatherlink.com 1.10,2013-12-06 13:16:00,
2013-12-06 08:31:00,38.7,38.0,30.02,East,84,1.0,1.0,96,0.01,,,0.48,weatherlink.com 1.10,2013-12-06 13:31:00,
2013-12-06 08:46:00,38.5,38.0,30.03,NNE,32,0.0,1.0,96,0.00,,,0.48,weatherlink.com 1.10,2013-12-06 13:46:00,
2013-12-06 09:01:00,38.6,37.0,30.03,SE,138,1.0,2.0,95,0.00,,,0.48,weatherlink.com 1.10,2013-12-06 14:01:00,
2013-12-06 09:16:00,38.6,37.0,30.04,NNE,25,0.0,1.0,95,0.00,,,0.48,weatherlink.com 1.10,2013-12-06 14:16:00,
2013-12-06 09:31:00,39.0,37.0,30.03,North,352,1.0,4.0,92,0.00,,,0.48,weatherlink.com 1.10,2013-12-06 14:31:00,
2013-12-06 09:46:00,39.7,35.0,30.03,West,275,0.0,4.0,82,0.00,,,0.48,weatherlink.com 1.10,2013-12-06 14:46:00,
2013-12-06 10:01:00,40.1,33.0,30.04,WSW,252,2.0,4.0,76,0.00,,,0.48,weatherlink.com 1.10,2013-12-06 15:01:00,
2013-12-06 10:16:00,40.0,35.0,30.03,North,11,1.0,6.0,81,0.00,,,0.48,weatherlink.com 1.10,2013-12-06 15:16:00,
2013-12-06 10:31:00,39.9,32.0,30.02,NW,314,2.0,6.0,72,0.00,,,0.48,weatherlink.com 1.10,2013-12-06 15:31:00,
2013-12-06 10:46:00,40.3,31.0,30.02,West,267,3.0,7.0,70,0.00,,,0.48,weatherlink.com 1.10,2013-12-06 15:46:00,
2013-12-06 11:01:00,40.0,32.0,30.01,East,91,1.0,4.0,73,0.00,,,0.48,weatherlink.com 1.10,2013-12-06 16:01:00,
2013-12-06 11:17:00,40.1,31.0,30.02,ENE,65,1.0,8.0,71,0.00,,,0.48,weatherlink.com 1.10,2013-12-06 16:17:00,
2013-12-06 11:32:00,40.1,32.0,30.03,NW,318,0.0,6.0,74,0.00,,,0.48,weatherlink.com 1.10,2013-12-06 16:32:00,
2013-12-06 11:47:00,40.3,32.0,30.04,WNW,283,4.0,6.0,73,0.00,,,0.48,weatherlink.com 1.10,2013-12-06 16:47:00,
2013-12-06 12:02:00,40.6,31.0,30.03,West,268,1.0,7.0,68,0.00,,,0.48,weatherlink.com 1.10,2013-12-06 17:02:00,
2013-12-06 12:17:00,40.6,32.0,30.04,NNW,333,2.0,7.0,70,0.00,,,0.48,weatherlink.com 1.10,2013-12-06 17:17:00,
2013-12-06 12:32:00,40.7,31.0,30.04,West,271,2.0,3.0,69,0.00,,,0.48,weatherlink.com 1.10,2013-12-06 17:32:00,
2013-12-06 12:47:00,40.6,31.0,30.02,NW,307,1.0,5.0,68,0.00,,,0.48,weatherlink.com 1.10,2013-12-06 17:47:00,
2013-12-06 13:02:00,40.6,30.0,30.02,NW,316,5.0,13.0,65,0.00,,,0.48,weatherlink.com 1.10,2013-12-06 18:02:00,
2013-12-06 13:17:00,40.6,29.0,30.03,WNW,300,3.0,9.0,64,0.00,,,0.48,weatherlink.com 1.10,2013-12-06 18:17:00,
2013-12-06 13:32:00,40.4,29.0,30.02,WNW,293,3.0,6.0,65,0.00,,,0.48,weatherlink.com 1.10,2013-12-06 18:32:00,
2013-12-06 13:47:00,40.5,29.0,30.03,NW,317,3.0,6.0,64,0.00,,,0.48,weatherlink.com 1.10,2013-12-06 18:47:00,
2013-12-06 14:02:00,40.4,29.0,30.03,WNW,297,4.0,6.0,65,0.00,,,0.48,weatherlink.com 1.10,2013-12-06 19:02:00,
2013-12-06 14:17:00,40.6,30.0,30.03,NW,304,2.0,7.0,66,0.00,,,0.48,weatherlink.com 1.10,2013-12-06 19:17:00,
2013-12-06 14:32:00,40.6,30.0,30.03,WNW,302,0.0,8.0,66,0.00,,,0.48,weatherlink.com 1.10,2013-12-06 19:32:00,
2013-12-06 14:47:00,40.5,29.0,30.02,NNE,29,0.0,5.0,65,0.00,,,0.48,weatherlink.com 1.10,2013-12-06 19:47:00,
2013-12-06 15:02:00,40.2,30.0,30.02,NNW,328,0.0,5.0,66,0.00,,,0.48,weatherlink.com 1.10,2013-12-06 20:02:00,
2013-12-06 15:17:00,39.9,30.0,30.05,East,81,0.0,1.0,67,0.00,,,0.48,weatherlink.com 1.10,2013-12-06 20:17:00,
2013-12-06 15:32:00,39.4,28.0,30.05,NNE,32,1.0,2.0,65,0.00,,,0.48,weatherlink.com 1.10,2013-12-06 20:32:00,
2013-12-06 15:47:00,39.4,28.0,30.05,East,90,0.0,1.0,64,0.00,,,0.48,weatherlink.com 1.10,2013-12-06 20:47:00,
2013-12-06 16:02:00,38.8,29.0,30.04,East,89,1.0,1.0,67,0.00,,,0.48,weatherlink.com 1.10,2013-12-06 21:02:00,
2013-12-06 16:17:00,38.7,30.0,30.05,North,354,0.0,2.0,72,0.00,,,0.48,weatherlink.com 1.10,2013-12-06 21:17:00,
2013-12-06 16:32:00,37.6,29.0,30.06,NNE,18,0.0,1.0,72,0.00,,,0.48,weatherlink.com 1.10,2013-12-06 21:32:00,
2013-12-06 16:47:00,38.7,29.0,30.06,WNW,301,1.0,3.0,67,0.00,,,0.48,weatherlink.com 1.10,2013-12-06 21:47:00,
2013-12-06 17:02:00,38.7,30.0,30.06,NNW,342,0.0,3.0,70,0.00,,,0.48,weatherlink.com 1.10,2013-12-06 22:02:00,
2013-12-06 17:17:00,37.5,29.0,30.06,NE,41,1.0,2.0,72,0.00,,,0.48,weatherlink.com 1.10,2013-12-06 22:17:00,
2013-12-06 17:32:00,37.8,29.0,30.07,NNW,334,0.0,2.0,70,0.00,,,0.48,weatherlink.com 1.10,2013-12-06 22:32:00,
2013-12-06 17:47:00,37.2,30.0,30.09,NNW,334,0.0,1.0,75,0.00,,,0.48,weatherlink.com 1.10,2013-12-06 22:47:00,
2013-12-06 18:02:00,36.3,31.0,30.09,NNE,29,0.0,1.0,81,0.00,,,0.48,weatherlink.com 1.10,2013-12-06 23:02:00,
2013-12-06 18:17:00,36.0,31.0,30.08,NNE,29,0.0,1.0,82,0.00,,,0.48,weatherlink.com 1.10,2013-12-06 23:17:00,
2013-12-06 18:32:00,35.6,31.0,30.09,NNE,29,0.0,1.0,84,0.00,,,0.48,weatherlink.com 1.10,2013-12-06 23:32:00,
2013-12-06 18:47:00,35.2,31.0,30.10,NNE,29,0.0,0.0,85,0.00,,,0.48,weatherlink.com 1.10,2013-12-06 23:47:00,
2013-12-06 19:02:00,35.0,31.0,30.10,NNE,29,1.0,1.0,85,0.00,,,0.48,weatherlink.com 1.10,2013-12-07 00:02:00,
2013-12-06 19:17:00,34.9,31.0,30.09,NNE,29,0.0,1.0,86,0.00,,,0.48,weatherlink.com 1.10,2013-12-07 00:17:00,
2013-12-06 19:32:00,34.6,31.0,30.10,NNE,29,0.0,1.0,88,0.00,,,0.48,weatherlink.com 1.10,2013-12-07 00:32:00,
2013-12-06 19:47:00,34.9,31.0,30.11,NNE,29,0.0,1.0,86,0.00,,,0.48,weatherlink.com 1.10,2013-12-07 00:47:00,
2013-12-06 20:02:00,34.5,31.0,30.11,NNE,29,0.0,0.0,88,0.00,,,0.48,weatherlink.com 1.10,2013-12-07 01:02:00,
2013-12-06 20:17:00,34.3,31.0,30.12,NNE,29,0.0,0.0,89,0.00,,,0.48,weatherlink.com 1.10,2013-12-07 01:17:00,
2013-12-06 20:32:00,34.3,31.0,30.13,NNE,29,0.0,0.0,89,0.00,,,0.48,weatherlink.com 1.10,2013-12-07 01:32:00,
2013-12-06 20:47:00,34.0,31.0,30.13,NNE,29,0.0,0.0,90,0.00,,,0.48,weatherlink.com 1.10,2013-12-07 01:47:00,
2013-12-06 21:02:00,33.9,31.0,30.14,NNE,29,0.0,0.0,90,0.00,,,0.48,weatherlink.com 1.10,2013-12-07 02:02:00,
2013-12-06 21:17:00,33.6,31.0,30.14,NNE,29,0.0,1.0,91,0.00,,,0.48,weatherlink.com 1.10,2013-12-07 02:17:00,
2013-12-06 21:32:00,33.6,31.0,30.13,NNE,30,0.0,0.0,91,0.00,,,0.48,weatherlink.com 1.10,2013-12-07 02:32:00,
2013-12-06 21:47:00,33.7,31.0,30.12,NNE,30,0.0,0.0,91,0.00,,,0.48,weatherlink.com 1.10,2013-12-07 02:47:00,
2013-12-06 22:02:00,33.5,31.0,30.12,NE,36,0.0,0.0,90,0.00,,,0.48,weatherlink.com 1.10,2013-12-07 03:02:00,
2013-12-06 22:17:00,34.1,30.0,30.14,NNE,26,0.0,2.0,84,0.00,,,0.48,weatherlink.com 1.10,2013-12-07 03:17:00,
2013-12-06 22:33:00,34.1,30.0,30.14,NNE,26,0.0,1.0,86,0.00,,,0.48,weatherlink.com 1.10,2013-12-07 03:33:00,
2013-12-06 22:48:00,33.8,30.0,30.15,NNE,26,0.0,1.0,85,0.00,,,0.48,weatherlink.com 1.10,2013-12-07 03:48:00,
2013-12-06 23:03:00,33.5,30.0,30.14,ENE,63,0.0,1.0,86,0.00,,,0.48,weatherlink.com 1.10,2013-12-07 04:03:00,
2013-12-06 23:18:00,33.4,29.0,30.13,ENE,76,0.0,1.0,85,0.00,,,0.48,weatherlink.com 1.10,2013-12-07 04:18:00,
2013-12-06 23:33:00,33.3,30.0,30.13,NE,44,0.0,1.0,86,0.00,,,0.48,weatherlink.com 1.10,2013-12-07 04:33:00,
2013-12-06 23:48:00,33.3,29.0,30.12,SSE,150,0.0,2.0,83,0.00,,,0.48,weatherlink.com 1.10,2013-12-07 04:48:00,